Weather History for KTWF - August, 2014

Change the Weather History Date:

Tuesday, August 12, 2014

  Actual Average Record
Temperature  
Mean Temperature 81 °F -  
Max Temperature 94 °F 89 °F - ()
Min Temperature 67 °F 57 °F - ()
Degree Days  
Heating Degree Days 0 0  
Month to date heating degree days 2 0  
Since 1 June heating degree days 60 93  
Since 1 July heating degree days 2 6  
Cooling Degree Days 16 8  
Month to date cooling degree days 114 112  
Year to date cooling degree days 668 498  
Since 1 June cooling degree days 635 476  
Growing Degree Days 30 (Base 50)    
Moisture  
Dew Point 53 °F    
Average Humidity 42    
Maximum Humidity 63    
Minimum Humidity 21    
Precipitation  
Precipitation 0.04 in 0.01 in - ()
Month to date precipitation 3.75 0.13  
Year to date precipitation 10.43 6.69  
Sea Level Pressure  
Sea Level Pressure 29.94 in    
Wind  
Wind Speed 11 mph (SSE)    
Max Wind Speed 24 mph    
Max Gust Speed 31 mph    
Visibility 10 miles    
Events Rain , Thunderstorm    
T = Trace of Precipitation, MM = Missing Value Source: NWS Daily Summary

Daily Weather History Graph

Daily Weather History Graph

Search for Another Location

Airport or City:

Trip Planner

Search our weather history database for the weather conditions in past years. The results will help you decide how hot, cold, wet, or windy it might be!

Date:

Astronomy

Aug. 12, 2014 Rise Set
Actual Time 6:41 AM MDT 8:43 PM MDT
Civil Twilight 6:11 AM MDT 9:13 PM MDT
Nautical Twilight 5:33 AM MDT 9:51 PM MDT
Astronomical Twilight 4:52 AM MDT 10:32 PM MDT
Moon 9:48 PM MDT (8/12) 9:08 AM MDT (8/12)
Length of Visible Light 15h 02m
Length of Day
14h 01m
Waning Gibbous, 94% of the Moon is Illuminated
Aug 12
Waning Gibbous
Aug 17
Last Quarter
Aug 25
New
Sep 2
First Quarter
Sep 8
Full

Hourly Weather History & Observations

Time (MDT) Temp. Heat Index Dew Point Humidity Pressure Visibility Wind Dir Wind Speed Gust Speed Precip Events Conditions
12:53 AM 73.9 °F - 50.0 °F 43% 29.95 in 10.0 mi South 9.2 mph - N/A   Clear
1:53 AM 73.9 °F - 50.0 °F 43% 29.96 in 10.0 mi South 15.0 mph - N/A   Partly Cloudy
2:53 AM 75.0 °F - 48.9 °F 40% 29.94 in 10.0 mi South 11.5 mph - N/A   Mostly Cloudy
3:53 AM 75.0 °F - 48.9 °F 40% 29.95 in 10.0 mi SW 11.5 mph - 0.00 in Rain Light Rain
4:53 AM 72.0 °F - 52.0 °F 49% 29.95 in 10.0 mi South 11.5 mph - 0.00 in   Overcast
6:53 AM 68.0 °F - 55.9 °F 65% 29.97 in 10.0 mi NNE 4.6 mph - 0.01 in   Mostly Cloudy
7:53 AM 68.0 °F - 55.9 °F 65% 29.99 in 10.0 mi ESE 8.1 mph - 0.00 in   Overcast
8:53 AM 71.1 °F - 55.0 °F 57% 29.99 in 10.0 mi East 9.2 mph - N/A   Mostly Cloudy
9:53 AM 75.9 °F - 55.0 °F 48% 29.96 in 10.0 mi ENE 9.2 mph - N/A   Clear
11:53 AM 81.0 °F 81.1 °F 57.9 °F 45% 29.93 in 10.0 mi NNE 9.2 mph - N/A   Clear
12:53 PM 88.0 °F - 48.9 °F 26% 29.91 in 10.0 mi SSE 18.4 mph 24.2 mph N/A   Clear
1:53 PM 90.0 °F - 48.9 °F 24% 29.88 in 10.0 mi South 16.1 mph 21.9 mph N/A   Partly Cloudy
2:00 PM 90.0 °F - 48.9 °F 24% 30.07 in 10.0 mi South 19.6 mph 27.6 mph N/A   Partly Cloudy
2:53 PM 91.0 °F - 48.0 °F 23% 29.84 in 10.0 mi South 10.4 mph 23.0 mph N/A   Partly Cloudy
3:53 PM 91.9 °F - 46.9 °F 21% 29.81 in 10.0 mi SSE 13.8 mph - N/A   Clear
4:14 PM 93.0 °F - 48.0 °F 21% 29.99 in 10.0 mi South 15.0 mph 24.2 mph N/A Thunderstorm Clear
4:53 PM 82.9 °F 81.9 °F 54.0 °F 37% 29.82 in 10.0 mi West 17.3 mph 28.8 mph N/A   Partly Cloudy
5:00 PM 82.0 °F 81.4 °F 55.0 °F 39% 30.01 in 10.0 mi West 17.3 mph - N/A   Partly Cloudy
5:22 PM 81.0 °F 81.0 °F 57.0 °F 44% 30.00 in 10.0 mi West 15.0 mph 25.3 mph N/A Thunderstorm Clear
5:53 PM 77.0 °F - 57.9 °F 52% 29.87 in 10.0 mi SSE 8.1 mph - 0.00 in Rain , Thunderstorm Light Rain
6:43 PM 66.9 °F - 55.0 °F 66% 30.07 in 10.0 mi ESE 17.3 mph 27.6 mph 0.03 in Rain , Thunderstorm Light Rain
6:53 PM 68.0 °F - 55.9 °F 65% 29.91 in 10.0 mi SE 17.3 mph 25.3 mph 0.03 in Rain Light Rain
7:53 PM 70.0 °F - 54.0 °F 57% 29.89 in 10.0 mi SE 13.8 mph - 0.00 in   Clear
8:53 PM 72.0 °F - 51.1 °F 48% 29.89 in 10.0 mi South 9.2 mph - N/A   Clear
9:53 PM 72.0 °F - 53.1 °F 51% 29.93 in 10.0 mi Variable 4.6 mph - N/A   Partly Cloudy
10:53 PM 70.0 °F - 54.0 °F 57% 29.93 in 10.0 mi SSW 9.2 mph - N/A   Clear